Location: Beekmeers
(50.8953°N, 3.6968°E)
Time: 19:21:17
(UTC+00:00)

Cosmos 2333 Rocket - Pass Details

Date: 23 May 2024
Orbit: 838 x 863 km, 70.8° (Epoch: 16 June)

Event Time Altitude Azimuth Distance (km) Brightness Sun altitude
Rises 02:29:26 0° 327° (NNW) 3,425 5.6 -9.5°
Reaches altitude 10° 02:31:55 10° 324° (NW) 2,489 4.8 -9.3°
Maximum altitude 02:37:30 57° 247° (WSW) 1,004 2.3 -8.7°
Drops below altitude 10° 02:43:05 10° 170° (S) 2,488 4.3 -8.1°
Sets 02:45:34 0° 166° (SSE) 3,424 5.0 -7.9°
